Location: Peterborough
(44.3091°N, 78.3197°W)
Time: 06:52:01
(UTC-04:00)

A-11 Canister half - Pass Details

Date: 28 March 2023
Orbit: 1513 x 1686 km, 47.2° (Epoch: 04 June)

Event Time Altitude Azimuth Distance (km) Brightness Sun altitude
Rises 21:49:40 0° 233° (SW) 4,772 11.9 -23.5°
Reaches altitude 10° 21:52:43 10° 231° (SW) 3,812 11.3 -24.0°
Maximum altitude 22:02:24 71° 150° (SSE) 1,722 9.0 -25.4°
Enters shadow 22:09:31 22° 72° (ENE) 3,063 10.2 -26.5°
